When you browse on this site, cookies collect data to enhance your experience and personalize the content and advertising you see.
Visit our Privacy Policy to learn more. By continuing to use the site, you agree to this use of cookies and data.
  • en Suisse
  • Liste des pays
  • À 7 jours
  • Température de l'eau
  • Carte satellitaire
  • Carte météo
  • Widgets météo
  • user-avatar
    Se connecter

    Météo par heure à Karabalta

    Ce jour, 23 Janvier, Mercredi

    Heure Température Précipitation Vent Pression Humidité
    00:00 0°C° 0 mm 1 m/s 696 mmHg 70%
    01:00 0°C° 0 mm 1 m/s 696 mmHg 69%
    02:00 0°C° 0 mm 1 m/s 696 mmHg 68%
    03:00 0°C° 0 mm 1 m/s 696 mmHg 67%
    04:00 0°C° 0 mm 1 m/s 696 mmHg 66%
    05:00 -1°C° 0 mm 1 m/s 696 mmHg 69%
    06:00 -1°C° 0 mm 1 m/s 697 mmHg 68%
    07:00 -1°C° 0 mm 1 m/s 697 mmHg 67%
    08:00 -1°C° 0 mm 1 m/s 697 mmHg 66%
    09:00 0°C° 0 mm 1 m/s 697 mmHg 65%
    10:00 +1°C° 0 mm 1 m/s 697 mmHg 65%
    11:00 +2°C° 0 mm 1 m/s 697 mmHg 66%
    12:00 +3°C° 0 mm 1 m/s 697 mmHg 68%
    13:00 +2°C° 0 mm 2 m/s 697 mmHg 69%
    14:00 +2°C° 0 mm 2 m/s 697 mmHg 71%
    15:00 +2°C° 0 mm 1 m/s 697 mmHg 75%
    16:00 +1°C° 0 mm 1 m/s 697 mmHg 80%
    17:00 0°C° 0 mm 1 m/s 697 mmHg 84%
    18:00 0°C° 0 mm 1 m/s 698 mmHg 80%
    19:00 0°C° 0 mm 1 m/s 698 mmHg 75%
    20:00 0°C° 0 mm 1 m/s 699 mmHg 71%
    21:00 0°C° 0 mm 1 m/s 699 mmHg 68%
    22:00 0°C° 0 mm 1 m/s 699 mmHg 65%
    23:00 0°C° 0 mm 1 m/s 699 mmHg 62%

    Demain, 24 Janvier, Jeudi

    Heure Température Précipitation Vent Pression Humidité
    00:00 0°C° 0 mm 1 m/s 699 mmHg 60%
    01:00 0°C° 0 mm 1 m/s 700 mmHg 57%
    02:00 0°C° 0 mm 1 m/s 700 mmHg 55%
    03:00 0°C° 0 mm 1 m/s 700 mmHg 54%
    04:00 0°C° 0 mm 1 m/s 700 mmHg 53%
    05:00 0°C° 0 mm 1 m/s 701 mmHg 51%
    06:00 +1°C° 0 mm 1 m/s 701 mmHg 51%
    07:00 +1°C° 0 mm 1 m/s 702 mmHg 51%
    08:00 +1°C° 0 mm 1 m/s 702 mmHg 50%
    09:00 +2°C° 0 mm 1 m/s 702 mmHg 49%
    10:00 +3°C° 0 mm 1 m/s 703 mmHg 48%
    11:00 +4°C° 0 mm 1 m/s 703 mmHg 47%
    12:00 +4°C° 0 mm 1 m/s 703 mmHg 48%
    13:00 +4°C° 0 mm 1 m/s 703 mmHg 50%
    14:00 +3°C° 0 mm 2 m/s 703 mmHg 51%
    15:00 +3°C° 0 mm 1 m/s 703 mmHg 56%
    16:00 +2°C° 0 mm 1 m/s 703 mmHg 62%
    17:00 0°C° 0 mm 0 m/s 703 mmHg 67%
    18:00 +1°C° 0 mm 1 m/s 704 mmHg 65%
    19:00 +1°C° 0 mm 1 m/s 704 mmHg 63%
    20:00 +1°C° 0 mm 1 m/s 705 mmHg 62%
    21:00 +1°C° 0 mm 1 m/s 705 mmHg 59%
    22:00 -1°C° 0 mm 2 m/s 705 mmHg 56%
    23:00 -1°C° 0 mm 2 m/s 705 mmHg 53%

    Après-demain, 25 Janvier, Vendredi

    Heure Température Précipitation Vent Pression Humidité
    00:00 -2°C° 0 mm 2 m/s 705 mmHg 50%
    01:00 -2°C° 0 mm 3 m/s 706 mmHg 48%
    02:00 -2°C° 0 mm 3 m/s 706 mmHg 46%
    03:00 -2°C° 0 mm 3 m/s 706 mmHg 44%
    04:00 -2°C° 0 mm 3 m/s 706 mmHg 43%
    05:00 -2°C° 0 mm 3 m/s 705 mmHg 42%
    06:00 -2°C° 0 mm 3 m/s 706 mmHg 41%
    07:00 -2°C° 0 mm 3 m/s 706 mmHg 41%
    08:00 -2°C° 0 mm 3 m/s 706 mmHg 40%
    09:00 +1°C° 0 mm 2 m/s 705 mmHg 38%
    10:00 +3°C° 0 mm 2 m/s 705 mmHg 36%
    11:00 +4°C° 0 mm 2 m/s 705 mmHg 34%
    12:00 +5°C° 0 mm 2 m/s 704 mmHg 34%
    13:00 +5°C° 0 mm 2 m/s 703 mmHg 34%
    14:00 +6°C° 0 mm 2 m/s 703 mmHg 35%
    15:00 +4°C° 0 mm 2 m/s 702 mmHg 38%
    16:00 +3°C° 0 mm 2 m/s 702 mmHg 42%
    17:00 +1°C° 0 mm 2 m/s 702 mmHg 46%
    18:00 +1°C° 0 mm 2 m/s 702 mmHg 45%
    19:00 +1°C° 0 mm 2 m/s 702 mmHg 44%
    20:00 -1°C° 0 mm 3 m/s 703 mmHg 42%
    21:00 -1°C° 0 mm 3 m/s 702 mmHg 40%
    22:00 -1°C° 0 mm 3 m/s 702 mmHg 38%
    23:00 -1°C° 0 mm 3 m/s 702 mmHg 35%

    26 Janvier, Samedi

    Heure Température Précipitation Vent Pression Humidité
    00:00 -1°C° 0 mm 3 m/s 702 mmHg 34%
    01:00 -1°C° 0 mm 3 m/s 702 mmHg 33%
    02:00 -1°C° 0 mm 3 m/s 702 mmHg 31%
    03:00 -1°C° 0 mm 3 m/s 701 mmHg 30%
    04:00 -1°C° 0 mm 3 m/s 701 mmHg 29%
    05:00 -1°C° 0 mm 3 m/s 701 mmHg 28%
    06:00 -1°C° 0 mm 3 m/s 701 mmHg 28%
    07:00 -1°C° 0 mm 3 m/s 701 mmHg 28%
    08:00 -1°C° 0 mm 3 m/s 701 mmHg 28%
    09:00 +2°C° 0 mm 2 m/s 701 mmHg 27%
    10:00 +4°C° 0 mm 2 m/s 701 mmHg 27%
    11:00 +7°C° 0 mm 1 m/s 701 mmHg 27%
    12:00 +7°C° 0 mm 1 m/s 700 mmHg 27%
    13:00 +7°C° 0 mm 1 m/s 700 mmHg 28%
    14:00 +8°C° 0 mm 1 m/s 700 mmHg 29%
    15:00 +6°C° 0 mm 1 m/s 700 mmHg 32%
    16:00 +4°C° 0 mm 2 m/s 700 mmHg 36%
    17:00 +2°C° 0 mm 2 m/s 700 mmHg 40%
    18:00 +1°C° 0 mm 3 m/s 700 mmHg 37%
    19:00 +1°C° 0 mm 3 m/s 700 mmHg 35%
    20:00 0°C° 0 mm 3 m/s 701 mmHg 33%
    21:00 0°C° 0 mm 3 m/s 701 mmHg 32%
    22:00 0°C° 0 mm 3 m/s 701 mmHg 31%
    23:00 0°C° 0 mm 3 m/s 701 mmHg 30%

    27 Janvier, Dimanche

    Heure Température Précipitation Vent Pression Humidité
    00:00 0°C° 0 mm 3 m/s 701 mmHg 29%
    01:00 0°C° 0 mm 3 m/s 701 mmHg 29%
    02:00 0°C° 0 mm 3 m/s 701 mmHg 28%
    03:00 -1°C° 0 mm 4 m/s 701 mmHg 27%
    04:00 -1°C° 0 mm 4 m/s 701 mmHg 26%
    05:00 -1°C° 0 mm 4 m/s 701 mmHg 25%
    06:00 -1°C° 0 mm 4 m/s 701 mmHg 25%
    07:00 -1°C° 0 mm 4 m/s 702 mmHg 24%
    08:00 -1°C° 0 mm 4 m/s 702 mmHg 23%
    09:00 +1°C° 0 mm 4 m/s 702 mmHg 23%
    10:00 +4°C° 0 mm 3 m/s 701 mmHg 23%
    11:00 +7°C° 0 mm 2 m/s 701 mmHg 22%
    12:00 +7°C° 0 mm 2 m/s 701 mmHg 22%
    13:00 +9°C° 0 mm 1 m/s 700 mmHg 22%
    14:00 +9°C° 0 mm 1 m/s 700 mmHg 22%
    15:00 +7°C° 0 mm 2 m/s 700 mmHg 25%
    16:00 +5°C° 0 mm 2 m/s 700 mmHg 29%
    17:00 +3°C° 0 mm 3 m/s 700 mmHg 32%
    18:00 +3°C° 0 mm 3 m/s 700 mmHg 32%
    19:00 +2°C° 0 mm 3 m/s 700 mmHg 32%
    20:00 +1°C° 0 mm 4 m/s 700 mmHg 32%
    21:00 +1°C° 0 mm 4 m/s 700 mmHg 32%
    22:00 0°C° 0 mm 4 m/s 700 mmHg 32%
    23:00 0°C° 0 mm 4 m/s 700 mmHg 33%

    28 Janvier, Lundi

    Heure Température Précipitation Vent Pression Humidité
    00:00 0°C° 0 mm 4 m/s 700 mmHg 34%
    01:00 0°C° 0 mm 4 m/s 700 mmHg 34%
    02:00 +1°C° 0 mm 4 m/s 699 mmHg 35%
    03:00 +1°C° 0 mm 4 m/s 699 mmHg 35%
    04:00 +1°C° 0 mm 4 m/s 699 mmHg 36%
    05:00 0°C° 0 mm 4 m/s 699 mmHg 36%
    06:00 +1°C° 0 mm 4 m/s 699 mmHg 36%
    07:00 +1°C° 0 mm 4 m/s 699 mmHg 36%
    08:00 +1°C° 0 mm 4 m/s 699 mmHg 36%
    09:00 +4°C° 0 mm 4 m/s 699 mmHg 36%
    10:00 +5°C° 0 mm 4 m/s 699 mmHg 36%
    11:00 +7°C° 0 mm 4 m/s 699 mmHg 36%
    12:00 +8°C° 0 mm 3 m/s 698 mmHg 37%
    13:00 +9°C° 0 mm 3 m/s 697 mmHg 38%
    14:00 +9°C° 0 mm 3 m/s 697 mmHg 38%
    15:00 +7°C° 0 mm 4 m/s 696 mmHg 40%
    16:00 +6°C° 0 mm 4 m/s 696 mmHg 42%
    17:00 +5°C° 0 mm 4 m/s 696 mmHg 44%
    18:00 +5°C° 0 mm 5 m/s 695 mmHg 44%
    19:00 +5°C° 0 mm 5 m/s 695 mmHg 44%
    20:00 +5°C° 0 mm 5 m/s 695 mmHg 44%
    21:00 +5°C° 0.1 mm 5 m/s 695 mmHg 46%
    22:00 +5°C° 0.1 mm 4 m/s 694 mmHg 48%
    23:00 +5°C° 0.1 mm 4 m/s 694 mmHg 50%
    Voir plus